Location: Arclight Observatory
(36.5667°N, 87.3333°W)
Time: 15:38:35
(UTC-05:00)

Hubble Space Telescope - Visible Passes

Search period start: 30 March 2017 00:00
Search period end: 09 April 2017 00:00
Orbit: 538 x 542 km, 28.5° (Epoch: 29 March)

Date Brightness Start Highest point End Pass type
(mag) Time Alt. Az. Time Alt. Az. Time Alt. Az.
30 Mar 2.1 05:21:53 22° SSW 05:23:14 26° S 05:26:43 10° ESE visible
31 Mar 2.0 05:12:23 24° SSW 05:13:10 26° S 05:16:38 10° SE visible
01 Apr 2.0 05:02:56 25° S 05:03:05 25° S 05:06:31 10° SE visible
02 Apr 2.3 04:53:32 23° S 04:53:32 23° S 04:56:21 10° SE visible
03 Apr 2.6 04:44:11 19° SSE 04:44:11 19° SSE 04:46:09 10° SE visible
04 Apr 3.0 04:34:56 14° SSE 04:34:56 14° SSE 04:35:53 10° SE visible
